[[{"header":{"parameterUnit":"m.s-1","parameterCategory":1,"la1":30.2991,"la2":30.254,"lo1":-89.0895,"lo2":-89.0444,"dy":0.0017,"dx":0.0017,"nx":28,"ny":28,"refTime":"2024-04-01T09:00:00:Z","depth":0,"parameterNumber":2,"parameterNumberName":"U-component_of_WINDS"},"data":[0,0,0,0,0,0,0,0,0,0,0,0,0,0,0,0,0,0,0,0,0,0,0,0,0,0,0,0,0,0,0,0,0,0,0,0,0,0,0,0,0,0,0,0,0,0,0,0,0,0,0,0,0,0,0,0,0,0,4.5442,4.5441,0,4.5372,4.5371,4.537,4.5244,4.5242,4.5239,4.5237,4.5169,4.517,4.517,0,0,0,0,0,0,0,0,0,0,0,0,0,4.5473,4.5474,4.5442,4.5441,4.544,4.5372,4.5371,4.537,4.5245,4.5242,4.5239,4.5236,4.5169,4.517,4.517,0,0,0,0,0,0,0,0,0,0,0,0,0,4.5437,4.5474,4.5442,4.537,4.5362,4.5372,4.5371,4.5369,4.5245,4.5242,4.5238,4.5235,4.5169,4.517,4.517,4.5246,0,0,4.5172,4.5173,0,0,0,0,0,0,0,0,4.544,4.5436,4.5381,4.5375,4.5366,4.5313,4.5357,4.5328,4.5246,4.529,4.5237,4.5233,4.522,4.5217,4.5211,4.5243,4.524,4.5172,4.5173,4.5173,4.5173,0,0,0,0,0,0,0,4.5442,4.5439,4.5414,4.5381,4.5372,4.5342,4.5333,4.5351,4.5276,4.5286,4.5277,4.527,4.5216,4.5211,4.5209,4.5239,4.5172,4.5173,4.5173,4.5174,4.5331,4.5335,0,0,0,0,0,0,4.5455,4.5442,4.5416,4.5412,4.5395,4.5345,4.5334,4.5334,4.5276,4.5263,4.5273,4.5264,4.5212,4.5208,4.5206,4.5291,4.5173,4.5174,4.5174,4.5327,4.5332,4.5336,0,0,0,0,0,0,4.5456,4.5454,4.5419,4.5424,4.5418,4.5348,4.5348,4.5334,4.5329,4.5266,4.5252,4.5281,4.5209,4.5205,4.5237,4.5287,4.5174,4.5175,4.5323,4.5329,4.5334,4.5463,0,0,0,0,0,0,4.5457,4.5455,4.5482,4.5426,4.5418,4.5451,4.5351,4.5336,4.533,4.5318,4.527,4.5259,4.5206,4.5237,4.5238,4.5286,4.5175,4.5318,4.5325,4.5332,4.5454,4.5473,4.5488,0,0,0,0,0,4.5459,4.5522,4.5484,4.5481,4.545,4.5454,4.5449,4.5385,4.5335,4.5362,4.5322,4.5261,4.5282,4.5241,4.5241,4.5291,4.5315,4.5323,4.5332,4.5446,4.5469,4.5488,0,0,0,0,0,0,4.5587,4.5513,4.547,4.5516,4.5492,4.5432,4.5465,4.5411,4.5402,4.5391,4.5313,4.5304,4.5346,4.5322,4.5278,4.5362,4.5289,4.5298,4.5376,4.5397,4.5414,4.5419,4.5176,0,0,0,0,0,4.562,4.5628,4.5564,4.5611,4.5601,4.5536,4.5535,4.5488,4.546,4.5449,4.5411,4.5388,4.5389,4.5392,4.5389,4.545,4.5438,4.5484,4.5501,4.5516,4.5525,4.5556,4.5575,4.5364,4.5364,4.5364,0,0,4.569,4.565,4.566,4.5636,4.5611,4.5623,4.5528,4.5543,4.5552,4.5452,4.548,4.5451,4.542,4.5467,4.5486,4.5448,4.558,4.5527,4.5539,4.5539,4.5566,4.5586,4.5604,4.537,4.5369,4.5368,0,0,4.5822,4.5793,4.5829,4.5806,4.577,4.5726,4.5736,4.5684,4.5661,4.5687,4.5613,4.5622,4.5626,4.5607,4.5598,4.5725,4.5669,4.5727,4.5816,4.5847,4.5864,4.5878,4.5924,4.5941,4.5735,4.5736,4.5736,0,4.5913,4.5925,4.5855,4.5875,4.5867,4.5777,4.5814,4.5796,4.5762,4.576,4.5717,4.572,4.5693,4.5735,4.5766,4.5761,4.577,4.5731,4.5867,4.5881,4.5893,4.5936,4.5953,4.5743,4.5742,4.5741,4.5741,0,4.604,4.605,4.6084,4.6052,4.6048,4.6077,4.6012,4.6017,4.5971,4.5932,4.5961,4.5925,4.5914,4.5921,4.5876,4.5957,4.5934,4.5881,4.5806,4.5922,4.596,4.5976,4.5753,4.5751,4.5749,4.5747,0,0,4.625,4.6179,4.6192,4.6177,4.6131,4.6139,4.6164,4.6152,4.6158,4.6139,4.6159,4.6165,4.6115,4.6105,4.6058,4.6085,4.6188,4.6028,4.6026,4.6059,4.6275,4.6316,4.6336,4.6151,4.6154,4.6156,4.6278,0,4.6372,4.641,4.6348,4.6401,4.6411,4.6326,4.6348,4.6324,4.6289,4.6292,4.6254,4.6259,4.6193,4.6187,4.621,4.6171,4.6231,4.6161,4.617,4.6171,4.618,4.6356,4.6399,4.6515,4.6293,4.6295,4.6297,0,4.652,4.6506,4.656,4.6512,4.6513,4.6535,4.6519,4.6524,4.6495,4.6467,4.6457,4.64,4.6424,4.6352,4.6383,4.6337,4.6338,4.6319,4.6322,4.632,4.6241,4.6359,4.6551,4.6569,4.632,4.6318,4.6317,0,4.6668,4.6664,4.6695,4.6685,4.6629,4.6646,4.6624,4.6591,4.6588,4.6576,4.6573,4.6564,4.6559,4.6554,4.6497,4.645,4.6536,4.6459,4.6515,4.6517,4.6537,4.6537,4.6732,4.6538,4.6537,4.6537,4.6537,0,4.6812,4.6848,4.6761,4.6781,4.682,4.6749,4.679,4.6759,4.6731,4.6744,4.6671,4.6685,4.6609,4.6616,4.6572,4.6605,4.6604,4.6583,4.6571,4.6589,4.6592,4.6588,4.6579,4.6542,4.6541,4.654,4.6539,0,4.6984,4.6927,4.6956,4.6901,4.6888,4.6919,4.6872,4.6889,4.6849,4.6867,4.6867,4.6806,4.681,4.6753,4.6746,4.6716,4.677,4.6743,4.6779,4.6771,4.683,4.6825,4.703,4.7053,4.6845,4.6847,4.6848,0,4.7079,4.7105,4.7052,4.7055,4.7037,4.7043,4.7039,4.6971,4.6971,4.694,4.6961,4.6959,4.6953,4.6964,4.6919,4.6914,4.6887,4.6959,4.6885,4.6904,4.6888,4.6887,4.6889,4.6974,4.6977,4.6979,4.6981,0,4.7254,4.7225,4.7222,4.721,4.7208,4.7195,4.7178,4.7185,4.7111,4.7115,4.7117,4.7113,4.7105,4.7105,4.7091,4.7069,4.7014,4.7004,4.7017,4.7036,4.7056,4.7046,4.6821,4.7,4.6998,4.6996,4.6995,4.6995,4.739,4.741,4.7376,4.7376,4.7355,4.7341,4.7354,4.7316,4.7317,4.7305,4.7265,4.7275,4.7246,4.7221,4.7205,4.7212,4.7177,4.7195,4.72,4.7206,4.7217,4.7055,4.721,4.7209,4.7208,4.7208,4.7207,0,4.7562,4.7536,4.7536,4.7514,4.7515,4.7461,4.744,4.7444,4.7453,4.743,4.7426,4.743,4.7428,4.7384,4.7378,4.7392,4.7367,4.7393,4.7391,4.7387,4.7248,4.7238,4.7414,4.7414,4.7414,4.7414,4.7414,4.7414,4.7651,4.7681,4.7648,4.7668,4.7642,4.765,4.7643,4.763,4.7611,4.7618,4.7616,4.7587,4.7556,4.7547,4.7544,4.7531,4.7532,4.7567,4.7546,4.7417,4.7397,4.7378,4.7368,4.7568,4.7568,4.7684,4.7685,4.7686]},{"header":{"parameterUnit":"m.s-1","parameterCategory":1,"la1":30.2991,"la2":30.254,"lo1":-89.0895,"lo2":-89.0444,"dy":0.0017,"dx":0.0017,"nx":28,"ny":28,"refTime":"2024-04-01T09:00:00:Z","depth":0,"parameterNumber":3,"parameterNumberName":"V-component_of_WINDS"},"data":[0,0,0,0,0,0,0,0,0,0,0,0,0,0,0,0,0,0,0,0,0,0,0,0,0,0,0,0,0,0,0,0,0,0,0,0,0,0,0,0,0,0,0,0,0,0,0,0,0,0,0,0,0,0,0,0,0,0,4.4094,4.4097,0,4.4458,4.4462,4.4466,4.4546,4.4543,4.454,4.4538,4.4913,4.4925,4.4937,0,0,0,0,0,0,0,0,0,0,0,0,0,4.3466,4.3477,4.4093,4.4098,4.4102,4.4457,4.4462,4.4467,4.4546,4.4543,4.454,4.4537,4.4909,4.4923,4.4938,0,0,0,0,0,0,0,0,0,0,0,0,0,4.3775,4.3481,4.4092,4.4184,4.4196,4.4456,4.4463,4.4469,4.4547,4.4543,4.4539,4.4535,4.4904,4.4922,4.494,4.5136,0,0,4.4998,4.5006,0,0,0,0,0,0,0,0,4.3758,4.3798,4.4166,4.4178,4.4192,4.4452,4.4379,4.4692,4.4548,4.4414,4.4538,4.4533,4.4763,4.4793,4.487,4.5153,4.5169,4.4999,4.5011,4.5019,4.5024,0,0,0,0,0,0,0,4.3736,4.3783,4.4238,4.4171,4.4187,4.4208,4.4247,4.4439,4.4606,4.4425,4.4432,4.4474,4.4769,4.4852,4.488,4.5175,4.4999,4.5015,4.5027,4.5034,4.5637,4.5642,0,0,0,0,0,0,4.3698,4.3765,4.4226,4.4249,4.3961,4.4222,4.4267,4.4373,4.4604,4.4636,4.4477,4.4476,4.4822,4.4858,4.4893,4.5138,4.5018,4.5036,4.5047,4.5632,4.5638,4.5643,0,0,0,0,0,0,4.3685,4.3739,4.4211,4.4009,4.407,4.4237,4.4356,4.4382,4.4465,4.4643,4.4674,4.453,4.482,4.4867,4.5075,4.5152,4.5044,4.5061,4.5627,4.5634,4.5641,4.5629,0,0,0,0,0,0,4.3666,4.3733,4.3809,4.401,4.4081,4.4387,4.4361,4.4392,4.4497,4.4499,4.4702,4.4732,4.4821,4.5047,4.5093,4.5176,4.5076,4.5621,4.563,4.5639,4.5623,4.5634,4.5644,0,0,0,0,0,4.3644,4.3791,4.3812,4.3868,4.4179,4.4391,4.4432,4.4531,4.4503,4.458,4.4695,4.4725,4.5135,4.5067,4.5121,4.521,4.5616,4.5627,4.5638,4.5618,4.5632,4.5644,0,0,0,0,0,0,4.3596,4.3819,4.3845,4.4062,4.4207,4.4404,4.4505,4.4542,4.4699,4.4695,4.4811,4.4857,4.5058,4.5155,4.5074,4.5411,4.5375,4.5397,4.5341,4.5356,4.5367,4.534,4.5092,0,0,0,0,0,4.361,4.3763,4.395,4.4123,4.4195,4.4337,4.4433,4.4497,4.4652,4.4714,4.4844,4.4993,4.5156,4.5261,4.5421,4.5636,4.5682,4.5724,4.5735,4.5743,4.5761,4.5883,4.5905,4.5679,4.5679,4.5679,0,0,4.3642,4.3783,4.3872,4.4117,4.4237,4.4394,4.4388,4.4554,4.4672,4.4739,4.4944,4.5044,4.5219,4.5432,4.5532,4.5519,4.5833,4.5756,4.5761,4.5776,4.5897,4.5918,4.5937,4.5686,4.5685,4.5684,0,0,4.378,4.3901,4.406,4.418,4.4361,4.4455,4.4492,4.4684,4.4754,4.4961,4.5015,4.5156,4.5434,4.5557,4.5655,4.584,4.5874,4.5888,4.5945,4.6063,4.6081,4.6097,4.6165,4.6187,4.5905,4.5905,4.5905,0,4.3797,4.4035,4.4136,4.4301,4.4407,4.4474,4.4636,4.4747,4.4971,4.5044,4.5025,4.5376,4.5498,4.5741,4.5786,4.5863,4.5911,4.5867,4.607,4.6088,4.6104,4.617,4.6195,4.5906,4.5906,4.5906,4.5906,0,4.4047,4.4212,4.4318,4.4533,4.4651,4.4813,4.4939,4.5047,4.5099,4.5195,4.5405,4.5554,4.5746,4.5808,4.5861,4.6059,4.6045,4.6047,4.6013,4.6125,4.6189,4.6215,4.5907,4.5907,4.5907,4.5906,0,0,4.4167,4.4436,4.4473,4.4572,4.4777,4.4906,4.5071,4.5258,4.5348,4.55,4.5642,4.5875,4.5878,4.599,4.6058,4.6161,4.6299,4.6151,4.6156,4.6175,4.6528,4.6527,4.6554,4.6322,4.6327,4.6331,4.6514,0,4.4332,4.4629,4.4725,4.4973,4.5127,4.5192,4.5336,4.5477,4.5571,4.5715,4.5818,4.5983,4.5973,4.6041,4.6146,4.626,4.6372,4.6248,4.6457,4.6463,4.6413,4.6588,4.6587,4.6753,4.6539,4.6544,4.6547,0,4.4565,4.472,4.4983,4.5169,4.5238,4.5365,4.5545,4.5681,4.5843,4.5904,4.6028,4.6088,4.6263,4.6217,4.6461,4.6374,4.6465,4.6533,4.6542,4.6568,4.6513,4.6619,4.6808,4.6833,4.6587,4.6583,4.6581,0,4.4628,4.4903,4.5097,4.5179,4.54,4.5489,4.5585,4.5743,4.5849,4.6005,4.6076,4.625,4.6346,4.648,4.6586,4.6542,4.6821,4.6783,4.6877,4.6875,4.6935,4.693,4.7143,4.699,4.6989,4.6989,4.6988,0,4.4803,4.4962,4.5128,4.5247,4.5427,4.5536,4.5711,4.5811,4.5951,4.6091,4.6157,4.6287,4.6417,4.6565,4.6648,4.6838,4.688,4.6935,4.6956,4.6931,4.6924,4.6993,4.6985,4.6995,4.6994,4.6993,4.6991,0,4.4905,4.5023,4.5238,4.543,4.5482,4.5606,4.5771,4.5889,4.5984,4.6161,4.6209,4.6359,4.6536,4.6653,4.6879,4.6935,4.7143,4.716,4.7088,4.7099,4.7187,4.7178,4.7454,4.7496,4.7312,4.7313,4.7315,0,4.501,4.5134,4.5339,4.5438,4.5535,4.5692,4.5801,4.5912,4.6023,4.6217,4.6312,4.6493,4.6644,4.6924,4.7053,4.7227,4.725,4.7334,4.7276,4.7247,4.7253,4.7246,4.7259,4.7344,4.7345,4.7347,4.7348,0,4.5185,4.5237,4.5392,4.5567,4.5695,4.5839,4.5982,4.6059,4.6195,4.6316,4.6498,4.6615,4.6845,4.7025,4.721,4.731,4.7352,4.7364,4.7396,4.7373,4.7327,4.7355,4.7116,4.7358,4.7357,4.7356,4.7356,4.7355,4.5294,4.5407,4.557,4.574,4.5859,4.5992,4.6113,4.6224,4.6377,4.6574,4.663,4.6819,4.6978,4.7231,4.7334,4.7484,4.7476,4.752,4.7532,4.7542,4.7544,4.7301,4.7518,4.7518,4.7518,4.7518,4.7518,0,4.5474,4.5581,4.5737,4.5936,4.607,4.6097,4.6257,4.6367,4.6533,4.6678,4.6825,4.7034,4.7208,4.7351,4.7531,4.7624,4.7648,4.7667,4.7663,4.7686,4.754,4.7496,4.7645,4.7645,4.7645,4.7645,4.7645,4.7645,4.5583,4.5777,4.5848,4.6103,4.621,4.6396,4.6485,4.6608,4.6725,4.6955,4.71,4.7192,4.7336,4.7527,4.7688,4.7726,4.779,4.7806,4.7848,4.771,4.7696,4.7682,4.7641,4.7818,4.7818,4.7981,4.7982,4.7983]}]]